Regional Weather Roundup
Issued by NWS State College, PA

Home | Current Version | Previous Version | Text Only | Print | Product List | Glossary On
Versions: 1 2 3 4 5 6 7 8 9 10 11 12 13 14 15 16 17 18 19 20 21 22 23 24 25 26 27 28 29 30 31 32 33 34 35 36 37 38 39 40 41 42 43 44 45 46 47 48 49 50
000
ASUS41 KCTP 201910
RWRCTP

REGIONAL WEATHER ROUNDUP
NATIONAL WEATHER SERVICE STATE COLLEGE PA
200 PM EST SAT DEC 20 2014

Note: "fair" indicates few or no clouds below 12,000 feet with no
significant weather and/or obstructions to visibility.

* = STATION THAT DOES NOT REPORT PRECIPITATION /E.G. RAIN...SNOW...ETC/
    THUNDER OR FOG.

PAZ002>004-007>009-013>016-020>023-029>032-202000-
WESTERN PENNSYLVANIA

CITY           SKY/WX    TMP DP  RH WIND       PRES   REMARKS
ERIE           CLOUDY    31  20  63 NW3       30.26S
MEADVILLE      CLOUDY    28  20  71 W5        30.21S
FRANKLIN*      CLOUDY    27  19  74 N3        30.21F
NEW CASTLE       N/A     29  20  69 CALM      30.25S
BEAVER COUNTY  PTSUNNY   30  21  69 CALM      30.22S
BUTLER*        CLOUDY    28  19  69 W5        30.24R
PITTSBURGH INT PTSUNNY   31  21  66 W8        30.22S
PITTSBURGH     MOSUNNY   30  15  53 CALM      30.20F
INDIANA*       CLOUDY    28  21  74 NW5       30.23F
LATROBE        MOSUNNY   28  19  69 CALM      30.24F
WASHINGTON CO* NOT AVBL
$$

PAZ004>006-010>012-017>019-024>028-033>037-041-042-045-046-049>053-202000-
CENTRAL PENNSYLVANIA

CITY           SKY/WX    TMP DP  RH WIND       PRES   REMARKS
BRADFORD       CLOUDY    24  19  81 CALM      30.15F
DUBOIS         CLOUDY    27  21  78 VRB3      30.16F
CLEARFIELD     CLOUDY    28  19  69 CALM      30.18F
JOHNSTOWN      PTSUNNY   28  18  66 CALM      30.12F
ALTOONA        MOSUNNY   30  21  69 S3        30.17F
STATE COLLEGE  CLOUDY    28  21  74 VRB6      30.21F
WILLIAMSPORT   CLOUDY    33  20  58 W3        30.23F
SELINSGROVE    CLOUDY    34  21  59 CALM      30.25S
FT INDIANTOWN  CLOUDY    33  20  59 CALM      30.24F
CAPITAL CITY   CLOUDY    34  20  56 N3        30.26F
HARRISBURG     CLOUDY    34  21  59 W3        30.25F
YORK           PTSUNNY   34  21  59 CALM      30.24F
$$

PAZ038>040-043-044-047-048-054-055-060>062-067>071-202000-
EASTERN PENNSYLVANIA

CITY           SKY/WX    TMP DP  RH WIND       PRES   REMARKS
SCRANTON       CLOUDY    31  20  63 N5        30.20F
MOUNT POCONO   CLOUDY    26  18  71 N6        30.14F
ALLENTOWN      CLOUDY    34  21  59 CALM      30.25R
QUAKERTOWN*    CLOUDY    32  23  69 CALM      30.25S
READING        CLOUDY    34  20  56 CALM      30.25S
LANCASTER      CLOUDY    33  20  58 NW3       30.25S
COATESVILLE    CLOUDY    32  23  69 N3        30.24S
POTTSTOWN      CLOUDY    33  21  61 CALM      30.26F
BLUE BELL      CLOUDY    34  23  64 CALM      30.25F
DOYLESTOWN     CLOUDY    32  21  64 NW3       30.24S
WILLOW GROVE   NOT AVBL
NORTH PHILA    CLOUDY    35  19  52 CALM      30.28F
PHILADELPHIA   CLOUDY    35  20  54 VRB5      30.28F
$$


USA.gov is the U.S. government's official web portal to all federal, state and local government web resources and services.